SWA1279 KLAX-KDEN

Flight info

Callsign SWA1279
Flight time N/A
Altitude 37000
Route ORCKA5 LAS J146 DICEE BUMMP SSKII4
Aircraft B38M/M-SADE2E3GHIJ4J7P2RWZ/LB1D1

Departure

Time 2026-05-06 06:26
Airport Los Angeles International Airport (KLAX)

Arrival

Time N/A
Airport Denver International Airport (KDEN)
Time Latitude Longitude Altitude Speed Heading
2026-05-06 05:56 33.94723 -118.40191 95 ft 0 kts 84°
2026-05-06 06:17 33.94722 -118.40214 95 ft 4 kts 91°
2026-05-06 06:18 33.94717 -118.40239 95 ft 4 kts 58°
2026-05-06 06:18 33.94700 -118.40255 97 ft 4 kts
2026-05-06 06:18 33.94675 -118.40250 95 ft 4 kts 347°
2026-05-06 06:18 33.94665 -118.40247 95 ft 1 kts 353°
2026-05-06 06:22 33.94700 -118.40253 97 ft 12 kts 353°
2026-05-06 06:23 33.94812 -118.40273 96 ft 14 kts 342°
2026-05-06 06:23 33.94894 -118.40257 98 ft 14 kts 65°
2026-05-06 06:23 33.94911 -118.40130 96 ft 18 kts 83°
2026-05-06 06:23 33.94929 -118.39963 95 ft 18 kts 77°
2026-05-06 06:24 33.94981 -118.39910 96 ft 10 kts
2026-05-06 06:24 33.95042 -118.39936 96 ft 6 kts 292°
2026-05-06 06:24 33.95043 -118.39956 98 ft 0 kts 262°
2026-05-06 06:25 33.95041 -118.39965 97 ft 6 kts 262°
2026-05-06 06:25 33.94922 -118.41121 100 ft 136 kts 263°
2026-05-06 06:26 33.94797 -118.42448 259 ft 171 kts 264°
2026-05-06 06:26 33.94677 -118.43864 1059 ft 169 kts 263°
2026-05-06 06:26 33.94551 -118.45234 1838 ft 171 kts 263°
2026-05-06 06:26 33.94411 -118.46702 2437 ft 185 kts 264°
2026-05-06 06:27 33.94297 -118.48337 2901 ft 208 kts 266°
2026-05-06 06:27 33.94220 -118.50126 3636 ft 218 kts 267°
2026-05-06 06:27 33.94148 -118.51962 4537 ft 220 kts 266°
2026-05-06 06:27 33.94032 -118.53808 5433 ft 224 kts 264°
2026-05-06 06:28 33.93860 -118.55712 6205 ft 233 kts 264°
2026-05-06 06:28 33.93422 -118.57625 6830 ft 249 kts 239°
2026-05-06 06:28 33.92158 -118.59073 7515 ft 255 kts 205°
2026-05-06 06:28 33.90423 -118.59578 8206 ft 265 kts 177°
2026-05-06 06:29 33.88560 -118.59158 8655 ft 281 kts 158°
2026-05-06 06:29 33.86747 -118.58283 9578 ft 278 kts 153°
2026-05-06 06:29 33.84957 -118.57438 10535 ft 279 kts 155°
2026-05-06 06:29 33.83084 -118.56641 11152 ft 292 kts 158°
2026-05-06 06:30 33.81120 -118.55895 11911 ft 298 kts 160°
2026-05-06 06:30 33.79113 -118.55206 12768 ft 303 kts 162°
2026-05-06 06:30 33.77056 -118.54539 13555 ft 310 kts 162°
2026-05-06 06:30 33.74958 -118.53831 14353 ft 315 kts 161°
2026-05-06 06:31 33.72853 -118.53081 15201 ft 317 kts 159°
2026-05-06 06:31 33.70865 -118.51972 16039 ft 315 kts 142°
2026-05-06 06:31 33.69253 -118.50215 16776 ft 315 kts 124°
2026-05-06 06:31 33.68109 -118.47944 17294 ft 323 kts 109°
2026-05-06 06:32 33.67340 -118.45387 17913 ft 328 kts 103°
2026-05-06 06:32 33.66724 -118.42774 18641 ft 331 kts 101°
2026-05-06 06:32 33.66124 -118.40100 19452 ft 329 kts 101°
2026-05-06 06:32 33.65498 -118.37510 20287 ft 327 kts 102°
2026-05-06 06:33 33.64740 -118.34916 21004 ft 330 kts 104°
2026-05-06 06:33 33.64378 -118.32255 21689 ft 320 kts 83°
2026-05-06 06:33 33.64473 -118.29575 22333 ft 325 kts 86°
2026-05-06 06:33 33.64466 -118.26858 22993 ft 326 kts 86°
2026-05-06 06:34 33.64463 -118.24132 23653 ft 328 kts 86°
2026-05-06 06:34 33.64497 -118.21397 24186 ft 327 kts 80°
2026-05-06 06:34 33.65122 -118.18828 24748 ft 320 kts 60°
2026-05-06 06:34 33.66453 -118.16705 25262 ft 320 kts 44°
2026-05-06 06:35 33.68110 -118.15002 25749 ft 322 kts 41°
2026-05-06 06:35 33.69856 -118.13303 26268 ft 323 kts 40°
2026-05-06 06:35 33.71631 -118.11639 26806 ft 324 kts 40°
2026-05-06 06:35 33.73410 -118.10002 27316 ft 326 kts 39°
2026-05-06 06:36 33.75216 -118.08357 27771 ft 327 kts 39°
2026-05-06 06:36 33.77037 -118.06709 28263 ft 328 kts 39°
2026-05-06 06:36 33.78866 -118.05062 28741 ft 330 kts 40°
2026-05-06 06:36 33.80707 -118.03405 29215 ft 331 kts 40°
2026-05-06 06:37 33.82554 -118.01745 29678 ft 332 kts 40°
2026-05-06 06:37 33.84409 -118.00076 30159 ft 333 kts 40°
2026-05-06 06:37 33.86272 -117.98402 30503 ft 336 kts 40°
2026-05-06 06:37 33.88070 -117.96784 30775 ft 338 kts 39°
2026-05-06 06:38 33.89951 -117.95090 31179 ft 339 kts 39°
2026-05-06 06:38 33.91843 -117.93366 31381 ft 345 kts 39°
2026-05-06 06:38 33.93764 -117.91615 31663 ft 348 kts 39°
2026-05-06 06:38 33.95705 -117.89843 31899 ft 352 kts 39°
2026-05-06 06:39 33.97664 -117.88053 32170 ft 356 kts 39°
2026-05-06 06:39 33.99643 -117.86242 32415 ft 360 kts 39°
2026-05-06 06:39 34.01648 -117.84408 32663 ft 363 kts 39°
2026-05-06 06:39 34.03202 -117.82985 32856 ft 366 kts 39°
2026-05-06 06:40 34.04444 -117.81846 33004 ft 368 kts 39°
2026-05-06 06:40 34.06496 -117.79966 33241 ft 372 kts 39°
2026-05-06 06:40 34.08298 -117.78300 33448 ft 375 kts 41°
2026-05-06 06:40 34.10085 -117.76000 33691 ft 377 kts 52°
2026-05-06 06:41 34.11742 -117.73534 33929 ft 381 kts 50°
2026-05-06 06:41 34.13417 -117.71086 34148 ft 384 kts 50°
2026-05-06 06:41 34.14665 -117.69249 34314 ft 387 kts 50°
2026-05-06 06:41 34.16423 -117.66648 34484 ft 390 kts 50°
2026-05-06 06:42 34.18164 -117.64065 34716 ft 393 kts 50°
2026-05-06 06:42 34.19869 -117.61532 34981 ft 393 kts 50°
2026-05-06 06:42 34.21525 -117.59069 35255 ft 394 kts 50°
2026-05-06 06:43 34.24974 -117.53935 35602 ft 401 kts 50°
2026-05-06 06:43 34.26737 -117.51308 35739 ft 405 kts 50°
2026-05-06 06:43 34.28516 -117.48655 35944 ft 407 kts 50°
2026-05-06 06:43 34.30306 -117.45984 36122 ft 411 kts 50°
2026-05-06 06:44 34.32113 -117.43284 36239 ft 415 kts 50°
2026-05-06 06:44 34.33936 -117.40560 36453 ft 417 kts 50°
2026-05-06 06:44 34.35767 -117.37821 36590 ft 421 kts 50°
2026-05-06 06:44 34.37554 -117.35145 36763 ft 423 kts 50°
2026-05-06 06:45 34.39453 -117.32301 36932 ft 426 kts 50°
2026-05-06 06:45 34.43202 -117.26677 37069 ft 434 kts 50°
2026-05-06 06:46 34.46381 -117.21901 37095 ft 442 kts 50°
2026-05-06 06:46 34.50273 -117.16045 37059 ft 449 kts 50°
2026-05-06 06:47 34.54200 -117.10164 37036 ft 448 kts 49°
2026-05-06 06:47 34.58189 -117.04382 37028 ft 445 kts 49°
2026-05-06 06:48 34.62149 -116.98607 37026 ft 445 kts 49°
2026-05-06 06:48 34.66104 -116.92827 37033 ft 445 kts 49°
2026-05-06 06:49 34.70055 -116.87044 37038 ft 445 kts 49°
2026-05-06 06:49 34.74015 -116.81237 37046 ft 446 kts 50°
2026-05-06 06:50 34.77973 -116.75425 37046 ft 446 kts 50°
2026-05-06 06:50 34.81927 -116.69608 37048 ft 446 kts 50°
2026-05-06 06:51 34.85912 -116.63885 37038 ft 445 kts 46°
2026-05-06 06:51 34.90124 -116.58339 37022 ft 445 kts 46°
2026-05-06 06:52 34.94268 -116.52802 37019 ft 439 kts 46°
2026-05-06 06:52 34.98368 -116.47306 37001 ft 438 kts 46°
2026-05-06 06:53 35.02470 -116.41796 36985 ft 438 kts 46°
2026-05-06 06:53 35.06567 -116.36286 36970 ft 438 kts 46°
2026-05-06 06:54 35.10662 -116.30770 36966 ft 438 kts 46°
2026-05-06 06:54 35.14749 -116.25254 36999 ft 438 kts 46°
2026-05-06 06:55 35.18841 -116.19724 36970 ft 439 kts 46°
2026-05-06 06:55 35.22905 -116.14223 36978 ft 439 kts 46°
2026-05-06 06:56 35.26991 -116.08682 36981 ft 439 kts 47°
2026-05-06 06:56 35.31072 -116.03139 36983 ft 438 kts 47°
2026-05-06 06:57 35.35153 -115.97588 36985 ft 438 kts 47°
2026-05-06 06:57 35.39239 -115.92020 36982 ft 442 kts 47°
2026-05-06 06:58 35.43366 -115.86388 37003 ft 445 kts 47°
2026-05-06 06:58 35.47497 -115.80740 37007 ft 445 kts 47°
2026-05-06 06:59 35.51623 -115.75090 37003 ft 444 kts 47°
2026-05-06 06:59 35.55748 -115.69432 36999 ft 444 kts 47°
2026-05-06 07:00 35.59868 -115.63772 37018 ft 444 kts 47°
2026-05-06 07:00 35.64012 -115.58069 37009 ft 449 kts 47°
2026-05-06 07:01 35.68171 -115.52338 36999 ft 449 kts 47°
2026-05-06 07:01 35.72331 -115.46597 37006 ft 449 kts 47°
2026-05-06 07:02 35.76489 -115.40852 37000 ft 449 kts 47°
2026-05-06 07:02 35.80642 -115.35104 36999 ft 449 kts 47°
2026-05-06 07:03 35.84792 -115.29351 37002 ft 449 kts 47°
2026-05-06 07:03 35.88931 -115.23604 37005 ft 448 kts 47°
2026-05-06 07:04 35.93004 -115.17939 37003 ft 441 kts 47°
2026-05-06 07:04 35.97073 -115.12270 36996 ft 441 kts 47°
2026-05-06 07:05 36.01143 -115.06589 36993 ft 442 kts 47°
2026-05-06 07:05 36.05208 -115.00905 36969 ft 441 kts 47°
2026-05-06 07:06 36.09294 -114.95184 36947 ft 445 kts 47°
2026-05-06 07:06 36.13387 -114.89442 36888 ft 445 kts 47°
2026-05-06 07:07 36.17437 -114.83642 36870 ft 446 kts 53°
2026-05-06 07:07 36.18858 -114.80228 36880 ft 448 kts 67°
2026-05-06 07:07 36.20000 -114.76621 36854 ft 451 kts 65°
2026-05-06 07:08 36.22287 -114.69383 36846 ft 452 kts 66°
2026-05-06 07:08 36.24516 -114.62117 36843 ft 451 kts 66°
2026-05-06 07:09 36.26732 -114.54844 36839 ft 451 kts 66°
2026-05-06 07:09 36.28938 -114.47579 36842 ft 449 kts 66°
2026-05-06 07:10 36.31128 -114.40352 36836 ft 448 kts 66°
2026-05-06 07:10 36.33320 -114.33098 36844 ft 451 kts 66°
2026-05-06 07:11 36.35520 -114.25799 36850 ft 452 kts 66°
2026-05-06 07:11 36.37701 -114.18543 36852 ft 452 kts 66°
2026-05-06 07:12 36.39893 -114.11235 36858 ft 452 kts 66°
2026-05-06 07:12 36.42092 -114.03880 36859 ft 453 kts 67°
2026-05-06 07:13 36.44270 -113.96577 36872 ft 454 kts 67°
2026-05-06 07:13 36.46462 -113.89209 36872 ft 454 kts 67°
2026-05-06 07:14 36.48649 -113.81841 36884 ft 455 kts 67°
2026-05-06 07:14 36.50829 -113.74474 36907 ft 455 kts 68°
2026-05-06 07:15 36.53023 -113.67038 36883 ft 460 kts 68°
2026-05-06 07:15 36.55224 -113.59562 36902 ft 460 kts 68°
2026-05-06 07:16 36.57418 -113.52089 36901 ft 460 kts 68°
2026-05-06 07:16 36.59611 -113.44605 36907 ft 460 kts 68°
2026-05-06 07:17 36.61803 -113.37103 36911 ft 463 kts 68°
2026-05-06 07:17 36.63992 -113.29566 36917 ft 463 kts 68°
2026-05-06 07:18 36.66180 -113.22020 36930 ft 463 kts 68°
2026-05-06 07:18 36.68363 -113.14470 36954 ft 463 kts 68°
2026-05-06 07:19 36.70544 -113.06910 36978 ft 465 kts 68°
2026-05-06 07:19 36.72730 -112.99308 36987 ft 466 kts 68°
2026-05-06 07:20 36.74912 -112.91700 36987 ft 466 kts 69°
2026-05-06 07:20 36.77089 -112.84089 36981 ft 466 kts 69°
2026-05-06 07:21 36.79260 -112.76476 36975 ft 466 kts 69°
2026-05-06 07:21 36.81428 -112.68854 36946 ft 466 kts 69°
2026-05-06 07:22 36.83588 -112.61236 36922 ft 466 kts 69°
2026-05-06 07:22 36.85744 -112.53612 36910 ft 466 kts 69°
2026-05-06 07:23 36.87898 -112.45979 36910 ft 466 kts 69°
2026-05-06 07:23 36.90048 -112.38311 36905 ft 470 kts 67°
2026-05-06 07:24 36.92194 -112.30661 36896 ft 470 kts 67°
2026-05-06 07:24 36.94355 -112.22948 36888 ft 470 kts 68°
2026-05-06 07:25 36.96506 -112.15237 36877 ft 470 kts 69°
2026-05-06 07:25 36.98653 -112.07516 36878 ft 471 kts 68°
2026-05-06 07:26 37.00804 -111.99767 36855 ft 472 kts 68°
2026-05-06 07:26 37.02952 -111.92008 36837 ft 472 kts 68°
2026-05-06 07:27 37.05093 -111.84245 36832 ft 472 kts 68°
2026-05-06 07:27 37.07219 -111.76513 36805 ft 469 kts 69°
2026-05-06 07:28 37.09346 -111.68762 36809 ft 471 kts 69°
2026-05-06 07:28 37.12528 -111.57117 36802 ft 471 kts 69°
2026-05-06 07:29 37.14644 -111.49346 36870 ft 471 kts 69°
2026-05-06 07:29 37.16753 -111.41573 36860 ft 471 kts 69°
2026-05-06 07:30 37.18859 -111.33793 36839 ft 471 kts 69°
2026-05-06 07:30 37.20948 -111.26062 36811 ft 471 kts 69°
2026-05-06 07:31 37.23489 -111.18543 36804 ft 468 kts 61°
2026-05-06 07:31 37.26393 -111.11218 36787 ft 470 kts 61°
2026-05-06 07:32 37.29323 -111.03851 36787 ft 472 kts 62°
2026-05-06 07:32 37.32252 -110.96472 36766 ft 472 kts 62°
2026-05-06 07:33 37.35177 -110.89087 36777 ft 472 kts 62°
2026-05-06 07:33 37.38097 -110.81694 36764 ft 472 kts 62°
2026-05-06 07:34 37.41021 -110.74276 36776 ft 475 kts 62°
2026-05-06 07:34 37.43951 -110.66826 36758 ft 475 kts 62°
2026-05-06 07:35 37.46878 -110.59364 36762 ft 475 kts 62°
2026-05-06 07:35 37.49798 -110.51900 36763 ft 475 kts 62°
2026-05-06 07:36 37.52715 -110.44428 36765 ft 477 kts 62°
2026-05-06 07:36 37.55150 -110.38178 36791 ft 478 kts 62°
2026-05-06 07:37 37.58064 -110.30681 36784 ft 476 kts 62°
2026-05-06 07:37 37.60975 -110.23174 36789 ft 476 kts 62°
2026-05-06 07:38 37.63880 -110.15663 36792 ft 476 kts 62°
2026-05-06 07:38 37.66785 -110.08136 36792 ft 479 kts 62°
2026-05-06 07:39 37.69705 -110.00548 36802 ft 480 kts 62°
2026-05-06 07:39 37.72616 -109.92969 36806 ft 480 kts 62°
2026-05-06 07:40 37.75526 -109.85373 36806 ft 480 kts 62°
2026-05-06 07:40 37.78433 -109.77765 36817 ft 481 kts 63°
2026-05-06 07:41 37.81343 -109.70129 36809 ft 483 kts 63°
2026-05-06 07:41 37.84258 -109.62463 36861 ft 483 kts 63°
2026-05-06 07:42 37.87142 -109.54858 36852 ft 483 kts 63°
2026-05-06 07:42 37.90043 -109.47190 36836 ft 483 kts 63°
2026-05-06 07:43 37.92949 -109.39490 36814 ft 487 kts 63°
2026-05-06 07:43 37.95865 -109.31744 36815 ft 487 kts 63°
2026-05-06 07:44 37.98770 -109.24007 36813 ft 485 kts 63°
2026-05-06 07:44 38.01665 -109.16277 36814 ft 485 kts 63°
2026-05-06 07:45 38.04559 -109.08534 36810 ft 488 kts 63°
2026-05-06 07:45 38.07470 -109.00729 36811 ft 490 kts 63°
2026-05-06 07:46 38.10418 -108.92938 36817 ft 489 kts 62°
2026-05-06 07:46 38.13478 -108.85213 36803 ft 489 kts 62°
2026-05-06 07:47 38.16520 -108.77465 36825 ft 490 kts 62°
2026-05-06 07:47 38.19566 -108.69681 36814 ft 493 kts 62°
2026-05-06 07:48 38.22621 -108.61857 36813 ft 494 kts 62°
2026-05-06 07:48 38.25665 -108.54040 36815 ft 494 kts 62°
2026-05-06 07:49 38.28709 -108.46204 36805 ft 494 kts 62°
2026-05-06 07:49 38.31751 -108.38353 36807 ft 496 kts 62°
2026-05-06 07:50 38.34799 -108.30466 36808 ft 497 kts 63°
2026-05-06 07:50 38.37843 -108.22568 36834 ft 496 kts 62°
2026-05-06 07:51 38.40877 -108.14676 36883 ft 496 kts 62°
2026-05-06 07:51 38.43911 -108.06769 36924 ft 496 kts 62°
2026-05-06 07:52 38.46925 -107.98849 36958 ft 496 kts 63°
2026-05-06 07:52 38.49904 -107.90976 36953 ft 496 kts 63°
2026-05-06 07:53 38.52900 -107.83038 36955 ft 496 kts 63°
2026-05-06 07:53 38.54395 -107.79070 36792 ft 496 kts 63°
2026-05-06 07:53 38.55890 -107.75098 36792 ft 496 kts 63°
2026-05-06 07:54 38.58884 -107.67126 36793 ft 499 kts 63°
2026-05-06 07:54 38.61885 -107.59113 36786 ft 499 kts 63°
2026-05-06 07:55 38.64882 -107.51095 36795 ft 500 kts 63°
2026-05-06 07:55 38.67918 -107.43104 36797 ft 499 kts 63°
2026-05-06 07:56 38.70949 -107.35094 36790 ft 503 kts 63°
2026-05-06 07:56 38.73998 -107.27013 36807 ft 504 kts 63°
2026-05-06 07:57 38.77036 -107.18939 36784 ft 503 kts 63°
2026-05-06 07:57 38.80066 -107.10863 36787 ft 503 kts 63°
2026-05-06 07:58 38.83092 -107.02778 36791 ft 504 kts 63°
2026-05-06 07:58 38.86132 -106.94630 36792 ft 507 kts 63°
2026-05-06 07:59 38.89175 -106.86460 36778 ft 507 kts 63°
2026-05-06 07:59 38.92211 -106.78280 36803 ft 507 kts 63°
2026-05-06 08:00 38.95220 -106.70151 36797 ft 507 kts 63°
2026-05-06 08:00 38.98248 -106.61953 36782 ft 506 kts 63°
2026-05-06 08:01 39.01247 -106.53783 36823 ft 504 kts 64°
2026-05-06 08:01 39.04237 -106.45614 36891 ft 505 kts 64°
2026-05-06 08:02 39.07219 -106.37447 36944 ft 504 kts 64°
2026-05-06 08:02 39.10201 -106.29255 37012 ft 507 kts 64°
2026-05-06 08:03 39.13194 -106.21010 36990 ft 508 kts 64°
2026-05-06 08:03 39.16175 -106.12757 36950 ft 509 kts 64°
2026-05-06 08:04 39.19151 -106.04485 36932 ft 508 kts 64°
2026-05-06 08:04 39.22118 -105.96212 36877 ft 509 kts 64°
2026-05-06 08:05 39.25109 -105.87900 36867 ft 512 kts 64°
2026-05-06 08:05 39.28106 -105.79571 36871 ft 512 kts 64°
2026-05-06 08:06 39.31081 -105.71281 36925 ft 512 kts 64°
2026-05-06 08:06 39.34119 -105.62916 37004 ft 512 kts 64°
2026-05-06 08:07 39.37132 -105.54648 36983 ft 510 kts 64°
2026-05-06 08:07 39.40115 -105.46432 37046 ft 502 kts 64°
2026-05-06 08:08 39.41299 -105.42200 37018 ft 500 kts 78°
2026-05-06 08:08 39.41762 -105.37773 37038 ft 497 kts 90°
2026-05-06 08:08 39.41830 -105.28821 37070 ft 499 kts 91°
2026-05-06 08:09 39.41863 -105.19826 37090 ft 501 kts 92°
2026-05-06 08:09 39.41879 -105.10906 37096 ft 483 kts 92°
2026-05-06 08:10 39.41884 -105.06638 37097 ft 468 kts 92°
2026-05-06 08:10 39.41888 -105.02503 37111 ft 452 kts 92°
2026-05-06 08:10 39.41891 -104.98501 37098 ft 441 kts 92°
2026-05-06 08:10 39.41916 -104.94545 37099 ft 439 kts 88°
2026-05-06 08:11 39.42563 -104.86710 37112 ft 440 kts 85°
2026-05-06 08:11 39.43272 -104.78823 37080 ft 441 kts 84°
2026-05-06 08:12 39.43886 -104.74951 37071 ft 440 kts 70°
2026-05-06 08:12 39.45261 -104.71447 37063 ft 434 kts 49°
2026-05-06 08:12 39.47360 -104.68735 37073 ft 422 kts 28°
2026-05-06 08:12 39.49931 -104.67066 37074 ft 408 kts
2026-05-06 08:13 39.52667 -104.66546 37081 ft 391 kts 351°
2026-05-06 08:13 39.55380 -104.66517 37123 ft 391 kts 354°
2026-05-06 08:13 39.60779 -104.66351 37065 ft 387 kts 352°
2026-05-06 08:14 39.66163 -104.66264 37088 ft 387 kts 352°
2026-05-06 08:14 39.71558 -104.66193 37082 ft 387 kts 352°
2026-05-06 08:15 39.76941 -104.66126 37108 ft 387 kts 352°
2026-05-06 08:15 39.82326 -104.66061 37109 ft 387 kts 352°
2026-05-06 08:16 39.87591 -104.66814 37083 ft 372 kts 327°
2026-05-06 08:16 39.89762 -104.68512 37119 ft 362 kts 315°
2026-05-06 08:16 39.91779 -104.70507 37118 ft 367 kts 315°
2026-05-06 08:17 39.95892 -104.74616 37111 ft 378 kts 315°
2026-05-06 08:17 40.00130 -104.78879 37103 ft 392 kts 315°
2026-05-06 08:18 40.04520 -104.83201 37105 ft 404 kts 316°
2026-05-06 08:18 40.09158 -104.87630 37096 ft 417 kts 317°
2026-05-06 08:19 40.13935 -104.92040 37106 ft 429 kts 319°
2026-05-06 08:19 40.18913 -104.96509 37103 ft 436 kts 320°
2026-05-06 08:20 40.23966 -105.00855 37138 ft 435 kts 321°
2026-05-06 08:20 40.29105 -105.05070 37141 ft 436 kts 322°
2026-05-06 08:21 40.34322 -105.09142 37133 ft 437 kts 323°
2026-05-06 08:21 40.39655 -105.13066 37128 ft 441 kts 324°
2026-05-06 08:22 40.45093 -105.16837 37139 ft 443 kts 326°
2026-05-06 08:22 40.50607 -105.20448 37124 ft 444 kts 327°
2026-05-06 08:23 40.56216 -105.23906 37148 ft 446 kts 329°
2026-05-06 08:23 40.61867 -105.27237 37123 ft 449 kts 330°
2026-05-06 08:24 40.67667 -105.30455 37129 ft 449 kts 332°
2026-05-06 08:24 40.73443 -105.33479 37072 ft 450 kts 333°
2026-05-06 08:25 40.79320 -105.36338 37109 ft 450 kts 335°
2026-05-06 08:25 40.85248 -105.38978 37121 ft 450 kts 336°
2026-05-06 08:26 40.91263 -105.41394 37119 ft 452 kts 338°
2026-05-06 08:26 40.94339 -105.42325 37093 ft 460 kts 349°
2026-05-06 08:26 40.96475 -105.42371 37117 ft 466 kts 360°
2026-05-06 08:27 40.99714 -105.41433 37127 ft 478 kts 16°
2026-05-06 08:27 41.02652 -105.39385 37125 ft 490 kts 32°
2026-05-06 08:27 41.05169 -105.36305 37123 ft 499 kts 48°
2026-05-06 08:27 41.07077 -105.32442 37139 ft 505 kts 62°
2026-05-06 08:28 41.08352 -105.28079 37150 ft 509 kts 75°
2026-05-06 08:28 41.08935 -105.23457 37132 ft 510 kts 88°
2026-05-06 08:28 41.08801 -105.18763 37141 ft 509 kts 100°
2026-05-06 08:28 41.07963 -105.14236 37140 ft 506 kts 113°
2026-05-06 08:29 41.06459 -105.10056 37142 ft 500 kts 126°
2026-05-06 08:29 41.04372 -105.06431 37145 ft 492 kts 139°
2026-05-06 08:29 41.01806 -105.03509 37140 ft 483 kts 152°
2026-05-06 08:29 40.98902 -105.01352 37121 ft 476 kts 160°
2026-05-06 08:30 40.92912 -104.97647 37123 ft 475 kts 161°
2026-05-06 08:30 40.86932 -104.93968 37130 ft 474 kts 161°
2026-05-06 08:31 40.80933 -104.90388 37142 ft 466 kts 169°
2026-05-06 08:31 40.77830 -104.89600 37121 ft 446 kts 185°
2026-05-06 08:31 40.74751 -104.89706 37163 ft 443 kts 189°
2026-05-06 08:32 40.68591 -104.90107 37153 ft 443 kts 189°
2026-05-06 08:32 40.65555 -104.90544 37124 ft 433 kts 202°
2026-05-06 08:32 40.62919 -104.92199 37123 ft 413 kts 223°
2026-05-06 08:33 40.61085 -104.95009 37105 ft 405 kts 245°
2026-05-06 08:33 40.60311 -104.98543 37110 ft 406 kts 267°
2026-05-06 08:33 40.60726 -105.02213 37115 ft 413 kts 289°
2026-05-06 08:33 40.62281 -105.05418 37119 ft 427 kts 310°
2026-05-06 08:34 40.64771 -105.07649 37118 ft 445 kts 332°
2026-05-06 08:34 40.71052 -105.07833 37119 ft 483 kts 15°
2026-05-06 08:34 40.74010 -105.05632 37126 ft 498 kts 37°
2026-05-06 08:35 40.76327 -105.02186 37133 ft 508 kts 55°
2026-05-06 08:35 40.79691 -104.93923 37127 ft 513 kts 61°
2026-05-06 08:36 40.82038 -104.85088 37127 ft 512 kts 85°
2026-05-06 08:36 40.82109 -104.80403 37170 ft 512 kts 97°
2026-05-06 08:36 40.81493 -104.75795 37121 ft 508 kts 110°
2026-05-06 08:36 40.80214 -104.71492 37156 ft 502 kts 122°
2026-05-06 08:37 40.78344 -104.67656 37160 ft 494 kts 135°
2026-05-06 08:37 40.75975 -104.64453 37175 ft 483 kts 147°
2026-05-06 08:37 40.73257 -104.61927 37179 ft 475 kts 156°
2026-05-06 08:38 40.67285 -104.58605 37156 ft 459 kts 173°
2026-05-06 08:38 40.61070 -104.57893 37145 ft 443 kts 189°
2026-05-06 08:39 40.54880 -104.56877 37160 ft 462 kts 169°
2026-05-06 08:39 40.48715 -104.54689 37127 ft 448 kts 185°
2026-05-06 08:39 40.45686 -104.55064 37136 ft 431 kts 202°
2026-05-06 08:40 40.42985 -104.56572 37134 ft 416 kts 219°
2026-05-06 08:40 40.40850 -104.59047 37099 ft 407 kts 236°
2026-05-06 08:40 40.39513 -104.62264 37107 ft 402 kts 255°
2026-05-06 08:40 40.39151 -104.65880 37132 ft 403 kts 271°
2026-05-06 08:41 40.39634 -104.69469 37140 ft 409 kts 285°
2026-05-06 08:41 40.40865 -104.72866 37164 ft 417 kts 298°
2026-05-06 08:41 40.42764 -104.75846 37139 ft 426 kts 311°
2026-05-06 08:41 40.45145 -104.78141 37134 ft 438 kts 324°
2026-05-06 08:42 40.47986 -104.79729 37139 ft 451 kts 337°
2026-05-06 08:42 40.51102 -104.80496 37142 ft 463 kts 348°
2026-05-06 08:42 40.54354 -104.80613 37145 ft 471 kts 354°
2026-05-06 08:43 40.60917 -104.79893 37178 ft 479 kts
2026-05-06 08:43 40.64163 -104.78702 37074 ft 491 kts 19°
2026-05-06 08:43 40.67117 -104.76388 37122 ft 501 kts 35°
2026-05-06 08:43 40.69582 -104.73085 37160 ft 511 kts 51°
2026-05-06 08:44 40.71363 -104.69032 37141 ft 515 kts 68°
2026-05-06 08:44 40.72294 -104.64476 37176 ft 515 kts 83°
2026-05-06 08:44 40.72387 -104.59776 37164 ft 513 kts 99°
2026-05-06 08:44 40.71585 -104.55246 37154 ft 505 kts 116°
2026-05-06 08:45 40.69879 -104.51286 37158 ft 492 kts 135°
2026-05-06 08:45 40.67396 -104.48334 37158 ft 474 kts 156°
2026-05-06 08:45 40.64418 -104.46765 37122 ft 453 kts 178°
2026-05-06 08:45 40.61362 -104.46753 37131 ft 432 kts 199°
2026-05-06 08:46 40.58643 -104.48172 37120 ft 415 kts 219°
2026-05-06 08:46 40.53843 -104.52417 37183 ft 418 kts 218°
2026-05-06 08:47 40.49041 -104.56717 37133 ft 411 kts 228°
2026-05-06 08:47 40.47222 -104.59556 37137 ft 404 kts 241°
2026-05-06 08:47 40.46025 -104.62869 37138 ft 401 kts 253°
2026-05-06 08:47 40.45495 -104.66453 37136 ft 402 kts 266°
2026-05-06 08:48 40.45655 -104.70117 37139 ft 405 kts 278°
2026-05-06 08:48 40.46506 -104.73664 37137 ft 411 kts 291°
2026-05-06 08:48 40.48015 -104.76888 37136 ft 420 kts 304°
2026-05-06 08:48 40.50122 -104.79596 37135 ft 431 kts 317°
2026-05-06 08:49 40.52741 -104.81607 37135 ft 444 kts 330°
2026-05-06 08:49 40.55753 -104.82738 37134 ft 459 kts 345°
2026-05-06 08:49 40.58987 -104.82795 37135 ft 475 kts
2026-05-06 08:49 40.62200 -104.81531 37148 ft 492 kts 22°
2026-05-06 08:50 40.65000 -104.78883 37150 ft 504 kts 41°
2026-05-06 08:50 40.67217 -104.75335 37155 ft 512 kts 52°
2026-05-06 08:50 40.69419 -104.71593 37135 ft 509 kts 41°
2026-05-06 08:51 40.74294 -104.64985 37091 ft 512 kts 56°
2026-05-06 08:51 40.75791 -104.60731 37155 ft 514 kts 75°
2026-05-06 08:51 40.76253 -104.56078 37161 ft 513 kts 95°
2026-05-06 08:51 40.75581 -104.51522 37163 ft 504 kts 116°
2026-05-06 08:52 40.73829 -104.47613 37175 ft 489 kts 138°
2026-05-06 08:52 40.71255 -104.44852 37174 ft 470 kts 160°
2026-05-06 08:52 40.68231 -104.43547 37159 ft 449 kts 181°
2026-05-06 08:52 40.65192 -104.43760 37157 ft 432 kts 201°
2026-05-06 08:53 40.62479 -104.45233 37151 ft 417 kts 217°
2026-05-06 08:53 40.57543 -104.49308 37141 ft 419 kts 217°
2026-05-06 08:54 40.52623 -104.53419 37137 ft 419 kts 218°
2026-05-06 08:54 40.48067 -104.58031 37136 ft 408 kts 234°
2026-05-06 08:54 40.46538 -104.61125 37135 ft 403 kts 247°
2026-05-06 08:55 40.45657 -104.64596 37139 ft 401 kts 259°
2026-05-06 08:55 40.45458 -104.68247 37136 ft 403 kts 272°
2026-05-06 08:55 40.45952 -104.71880 37138 ft 408 kts 284°
2026-05-06 08:55 40.47124 -104.75294 37137 ft 415 kts 297°
2026-05-06 08:56 40.48930 -104.78295 37135 ft 425 kts 310°
2026-05-06 08:56 40.51295 -104.80690 37136 ft 437 kts 323°
2026-05-06 08:56 40.54128 -104.82303 37134 ft 451 kts 337°
2026-05-06 08:56 40.57277 -104.82938 37139 ft 467 kts 353°
2026-05-06 08:57 40.60534 -104.82391 37161 ft 483 kts 12°
2026-05-06 08:57 40.63593 -104.80437 37132 ft 498 kts 32°
2026-05-06 08:57 40.66119 -104.77263 37164 ft 508 kts 49°
2026-05-06 08:58 40.70639 -104.70101 37147 ft 504 kts 36°
2026-05-06 08:58 40.75181 -104.63064 37129 ft 513 kts 64°
2026-05-06 08:58 40.76212 -104.58566 37164 ft 515 kts 84°
2026-05-06 08:59 40.76141 -104.53879 37164 ft 510 kts 105°
2026-05-06 08:59 40.74936 -104.49561 37179 ft 498 kts 126°
2026-05-06 08:59 40.72756 -104.46146 37173 ft 481 kts 148°
2026-05-06 08:59 40.69910 -104.44039 37170 ft 461 kts 170°
2026-05-06 09:00 40.66826 -104.43465 37154 ft 441 kts 191°
2026-05-06 09:00 40.63898 -104.44310 37128 ft 425 kts 209°
2026-05-06 09:00 40.61367 -104.46184 37171 ft 417 kts 218°
2026-05-06 09:01 40.56448 -104.50217 37142 ft 419 kts 218°
2026-05-06 09:01 40.51533 -104.54340 37138 ft 419 kts 218°
2026-05-06 09:02 40.47309 -104.59357 37140 ft 405 kts 240°
2026-05-06 09:02 40.46064 -104.62650 37136 ft 402 kts 253°
2026-05-06 09:02 40.45488 -104.66228 37128 ft 402 kts 265°
2026-05-06 09:02 40.45600 -104.69897 37129 ft 405 kts 278°
2026-05-06 09:03 40.46401 -104.73450 37128 ft 411 kts 290°
2026-05-06 09:03 40.47869 -104.76707 37128 ft 419 kts 303°
2026-05-06 09:03 40.49942 -104.79461 37128 ft 431 kts 316°
2026-05-06 09:03 40.52533 -104.81524 37129 ft 444 kts 329°
2026-05-06 09:04 40.55528 -104.82719 37128 ft 458 kts 344°
2026-05-06 09:04 40.58755 -104.82854 37130 ft 474 kts
2026-05-06 09:04 40.61977 -104.81696 37148 ft 490 kts 21°
2026-05-06 09:04 40.64823 -104.79140 37139 ft 502 kts 40°
2026-05-06 09:05 40.67095 -104.75610 37154 ft 511 kts 52°
2026-05-06 09:05 40.71843 -104.68780 37171 ft 504 kts 38°
2026-05-06 09:05 40.74215 -104.65332 37092 ft 511 kts 54°
2026-05-06 09:06 40.75793 -104.61136 37154 ft 514 kts 73°
2026-05-06 09:06 40.76346 -104.56497 37162 ft 513 kts 93°
2026-05-06 09:06 40.75765 -104.51903 37162 ft 505 kts 114°
2026-05-06 09:06 40.74094 -104.47923 37172 ft 491 kts 136°
2026-05-06 09:07 40.71573 -104.45051 37170 ft 473 kts 158°
2026-05-06 09:07 40.68565 -104.43615 37156 ft 452 kts 179°
2026-05-06 09:07 40.65504 -104.43702 37154 ft 434 kts 199°
2026-05-06 09:07 40.62743 -104.45073 37140 ft 419 kts 216°
2026-05-06 09:08 40.60273 -104.47096 37131 ft 420 kts 217°
2026-05-06 09:08 40.55311 -104.51167 37129 ft 420 kts 218°
2026-05-06 09:09 40.50407 -104.55301 37125 ft 418 kts 220°
2026-05-06 09:09 40.48235 -104.57781 37127 ft 409 kts 233°
2026-05-06 09:09 40.46649 -104.60831 37126 ft 404 kts 246°
2026-05-06 09:09 40.45707 -104.64281 37130 ft 402 kts 258°
2026-05-06 09:10 40.45442 -104.67880 37127 ft 403 kts 271°
2026-05-06 09:10 40.45873 -104.71570 37128 ft 407 kts 283°
2026-05-06 09:10 40.46981 -104.75013 37127 ft 414 kts 296°
2026-05-06 09:10 40.48705 -104.78028 37128 ft 424 kts 308°
2026-05-06 09:11 40.51013 -104.80500 37130 ft 436 kts 322°
2026-05-06 09:11 40.53796 -104.82209 37128 ft 449 kts 336°
2026-05-06 09:11 40.56917 -104.82966 37132 ft 465 kts 351°
2026-05-06 09:11 40.60179 -104.82567 37158 ft 481 kts
2026-05-06 09:12 40.63277 -104.80775 37132 ft 496 kts 30°
2026-05-06 09:12 40.65865 -104.77716 37155 ft 507 kts 47°
2026-05-06 09:12 40.67977 -104.73964 37145 ft 511 kts 50°
2026-05-06 09:12 40.70346 -104.70511 37136 ft 504 kts 37°
2026-05-06 09:13 40.72954 -104.67441 37127 ft 508 kts 44°
2026-05-06 09:13 40.75041 -104.63659 37121 ft 512 kts 62°
2026-05-06 09:13 40.76210 -104.59239 37160 ft 514 kts 81°
2026-05-06 09:13 40.76295 -104.54549 37160 ft 510 kts 102°
2026-05-06 09:14 40.75242 -104.50149 37174 ft 500 kts 123°
2026-05-06 09:14 40.73180 -104.46581 37171 ft 484 kts 145°
2026-05-06 09:14 40.70401 -104.44274 37167 ft 464 kts 167°
2026-05-06 09:14 40.67317 -104.43482 37156 ft 444 kts 188°
2026-05-06 09:15 40.64344 -104.44132 37129 ft 428 kts 207°
2026-05-06 09:15 40.61746 -104.45897 37164 ft 418 kts 218°
2026-05-06 09:15 40.59260 -104.47918 37124 ft 420 kts 217°
2026-05-06 09:16 40.55140 -104.51312 37130 ft 420 kts 218°
2026-05-06 09:16 40.50230 -104.55461 37126 ft 418 kts 220°
2026-05-06 09:16 40.48101 -104.57980 37128 ft 409 kts 234°
2026-05-06 09:17 40.46555 -104.61069 37123 ft 404 kts 247°
2026-05-06 09:17 40.45656 -104.64541 37131 ft 402 kts 259°
2026-05-06 09:17 40.45438 -104.68199 37127 ft 403 kts 271°
2026-05-06 09:17 40.45913 -104.71833 37128 ft 408 kts 284°
2026-05-06 09:18 40.47066 -104.75260 37125 ft 415 kts 297°
2026-05-06 09:18 40.48856 -104.78281 37128 ft 425 kts 310°
2026-05-06 09:18 40.51210 -104.80706 37129 ft 437 kts 323°
2026-05-06 09:18 40.54026 -104.82347 37129 ft 451 kts 337°
2026-05-06 09:19 40.57156 -104.83021 37131 ft 466 kts 352°
2026-05-06 09:19 40.60420 -104.82525 37156 ft 482 kts 11°
2026-05-06 09:19 40.63493 -104.80622 37127 ft 497 kts 32°
2026-05-06 09:19 40.66031 -104.77487 37158 ft 507 kts 48°
2026-05-06 09:20 40.68126 -104.73729 37143 ft 511 kts 50°
2026-05-06 09:20 40.70535 -104.70335 37140 ft 503 kts 36°
2026-05-06 09:20 40.73135 -104.67238 37117 ft 508 kts 45°